Location: Unspecified
(0.0000°N, 0.0000°E)
Time: 10:01:18
(UTC+00:00)

MIDAS 4 DEB - Pass Details

Date: 09 November 2025
Orbit: 3271 x 3959 km, 95.8° (Epoch: 26 July)

Event Time Altitude Azimuth Distance (km) Brightness Sun altitude
Exits shadow 22:23:19 52° 261° (W) 4,215 ? -63.8°
Drops below altitude 10° 22:39:41 10° 208° (SSW) 6,977 ? -66.7°
Sets 22:44:34 0° 203° (SSW) 8,065 ? -67.5°
